Weather History for Flora, IL

Change the Weather History Date:

Friday, October 5, 2012

  Actual Average (KEVV) Record (KEVV)
Temperature  
Mean Temperature 50 °F 61 °F  
Max Temperature 56 °F 74 °F 91 °F (1951)
Min Temperature 42 °F 49 °F 31 °F (1968)
Degree Days  
Heating Degree Days 14 6  
Month to date heating degree days 26  
Since 1 July heating degree days 73  
Cooling Degree Days 0 2  
Month to date cooling degree days 10  
Year to date cooling degree days 1376  
Moisture  
Dew Point 46 °F    
Average Humidity 87    
Maximum Humidity 97    
Minimum Humidity 70    
Precipitation  
Precipitation 1.24 in 0.11 in 6.50 in (1910)
Month to date precipitation 0.53  
Year to date precipitation 34.50  
Snow  
Snow 0.00 in 0.00 in 0.00 in (2002)
Month to date snowfall 0.0  
Since 1 July snowfall 0.0  
Since 1 September snowfall 0.0  
Snow Depth -    
Sea Level Pressure  
Sea Level Pressure 30.17 in    
Wind  
Wind Speed 8 mph (North)    
Max Wind Speed 14 mph    
Max Gust Speed 21 mph    
Visibility 9 miles    
Events Rain , Thunderstorm    
T = Trace of Precipitation, MM = Missing Value Source: NWS Daily Summary

Daily Weather History Graph

Daily Weather History Graph

Search for Another Location

Airport:

Trip Planner

Search our weather history database for the weather conditions in past years. The results will help you decide how hot, cold, wet, or windy it might be!

Date:

Astronomy

Oct. 05, 2012 Rise Set
Actual Time 6:53 AM CDT 6:29 PM CDT
Civil Twilight 6:27 AM CDT 6:56 PM CDT
Nautical Twilight 5:56 AM CDT 7:26 PM CDT
Astronomical Twilight 5:25 AM CDT 7:57 PM CDT
Moon 9:56 PM CDT (10/5) 11:58 AM CDT (10/5)
Length of Visible Light 12h 28m
Length of Day
11h 35m
Waning Gibbous, 74% of the Moon is Illuminated
Oct 5
Waning Gibbous
Oct 8
Last Quarter
Oct 15
New
Oct 21
First Quarter
Oct 29
Full

Hourly Weather History & Observations

Time (CDT) Temp. Windchill Dew Point Humidity Pressure Visibility Wind Dir Wind Speed Gust Speed Precip Events Conditions
12:15 AM 58.3 °F - 50.9 °F 76% 30.17 in 10.0 mi North 8.1 mph - N/A   Clear
12:35 AM 57.7 °F - 50.2 °F 76% 30.17 in 10.0 mi North 8.1 mph - N/A   Clear
12:55 AM 56.8 °F - 50.4 °F 79% 30.17 in 10.0 mi North 4.6 mph - N/A   Clear
1:15 AM 56.3 °F - 50.5 °F 81% 30.18 in 10.0 mi NNW 5.8 mph - N/A   Clear
1:35 AM 55.8 °F - 50.4 °F 82% 30.18 in 10.0 mi NNW 6.9 mph - N/A   Clear
1:55 AM 55.4 °F - 50.4 °F 83% 30.18 in 10.0 mi NNW 6.9 mph - N/A   Clear
2:15 AM 54.7 °F - 50.5 °F 86% 30.17 in 10.0 mi North 3.5 mph - N/A   Clear
2:35 AM 53.8 °F - 50.4 °F 88% 30.17 in 10.0 mi NNW 5.8 mph - N/A   Clear
2:55 AM 53.8 °F - 50.4 °F 88% 30.17 in 10.0 mi NNW 6.9 mph - N/A   Clear
3:15 AM 54.0 °F - 50.4 °F 88% 30.17 in 10.0 mi North 6.9 mph - N/A   Clear
3:35 AM 53.8 °F - 50.4 °F 88% 30.18 in 10.0 mi NNW 6.9 mph - N/A   Clear
3:55 AM 53.8 °F - 50.0 °F 87% 30.19 in 10.0 mi North 8.1 mph - N/A   Clear
4:15 AM 53.8 °F - 49.1 °F 84% 30.17 in 10.0 mi North 5.8 mph - N/A   Clear
4:35 AM 54.1 °F - 47.7 °F 79% 30.18 in 10.0 mi North 10.4 mph - N/A   Mostly Cloudy
4:55 AM 54.1 °F - 46.6 °F 76% 30.17 in 10.0 mi NNE 8.1 mph - N/A   Mostly Cloudy
5:15 AM 53.8 °F - 46.8 °F 77% 30.19 in 10.0 mi North 11.5 mph - N/A   Mostly Cloudy
5:35 AM 53.4 °F - 46.6 °F 78% 30.17 in 10.0 mi NNE 9.2 mph - N/A   Mostly Cloudy
5:55 AM 53.1 °F - 46.6 °F 79% 30.18 in 10.0 mi North 9.2 mph - N/A   Overcast
6:15 AM 52.9 °F - 46.8 °F 80% 30.18 in 10.0 mi North 8.1 mph - N/A   Scattered Clouds
6:35 AM 52.5 °F - 46.6 °F 80% 30.18 in 10.0 mi Calm Calm - N/A   Scattered Clouds
6:55 AM 52.3 °F - 46.2 °F 80% 30.19 in 10.0 mi North 6.9 mph 18.4 mph N/A   Scattered Clouds
7:15 AM 52.0 °F - 46.0 °F 80% 30.19 in 10.0 mi North 10.4 mph 20.7 mph N/A   Mostly Cloudy
7:35 AM 52.0 °F - 46.0 °F 80% 30.18 in 10.0 mi Calm Calm - N/A   Scattered Clouds
7:55 AM 52.9 °F - 46.8 °F 80% 30.19 in 10.0 mi North 5.8 mph - N/A   Scattered Clouds
8:15 AM 52.9 °F - 46.6 °F 79% 30.19 in 10.0 mi North 6.9 mph - N/A   Scattered Clouds
8:35 AM 52.9 °F - 46.6 °F 79% 30.21 in 10.0 mi North 10.4 mph - N/A Thunderstorm Scattered Clouds
8:55 AM 54.0 °F - 46.2 °F 75% 30.20 in 10.0 mi North 9.2 mph - N/A   Scattered Clouds
9:15 AM 53.6 °F - 45.1 °F 73% 30.20 in 10.0 mi North 9.2 mph - N/A Thunderstorm Mostly Cloudy
9:35 AM 53.6 °F - 45.3 °F 74% 30.20 in 10.0 mi NNE 6.9 mph - N/A Thunderstorm Mostly Cloudy
9:55 AM 53.6 °F - 45.1 °F 73% 30.19 in 10.0 mi NNE 5.8 mph - N/A Thunderstorm Mostly Cloudy
10:15 AM 53.8 °F - 44.1 °F 70% 30.20 in 10.0 mi North 6.9 mph - N/A   Mostly Cloudy
10:35 AM 54.7 °F - 46.2 °F 73% 30.18 in 10.0 mi NNE 8.1 mph - N/A   Mostly Cloudy
10:55 AM 53.2 °F - 45.5 °F 75% 30.19 in 10.0 mi North 9.2 mph - N/A   Scattered Clouds
11:15 AM 52.9 °F - 45.7 °F 77% 30.18 in 10.0 mi North 9.2 mph - N/A   Mostly Cloudy
11:35 AM 52.9 °F - 46.2 °F 78% 30.18 in 10.0 mi North 9.2 mph - N/A   Overcast
11:55 AM 51.8 °F - 46.4 °F 82% 30.17 in 10.0 mi North 8.1 mph - N/A   Mostly Cloudy
12:15 PM 51.8 °F - 46.4 °F 82% 30.16 in 10.0 mi North 6.9 mph - N/A   Overcast
12:35 PM 51.8 °F - 46.4 °F 82% 30.16 in 10.0 mi North 8.1 mph - N/A Rain Rain
12:55 PM 51.1 °F - 46.9 °F 86% 30.16 in 10.0 mi North 9.2 mph - N/A Rain Light Rain
1:15 PM 51.8 °F - 48.2 °F 88% 30.16 in 10.0 mi North 9.2 mph - N/A Rain Light Rain
1:35 PM 49.6 °F - 46.2 °F 88% 30.17 in 10.0 mi North 11.5 mph 16.1 mph N/A Rain , Thunderstorm Thunderstorms and Rain
1:55 PM 48.9 °F - 46.6 °F 92% 30.12 in 7.0 mi North 9.2 mph - 0.04 in Rain Rain
2:15 PM 47.8 °F - 46.4 °F 95% 30.13 in 0.2 mi NNW 8.1 mph - 0.22 in Rain Light Rain
2:35 PM 47.7 °F - 46.6 °F 96% 30.11 in 0.8 mi North 8.1 mph - 0.47 in Rain Light Rain
2:55 PM 46.8 °F - 46.0 °F 97% 30.12 in 7.0 mi North 11.5 mph 18.4 mph 0.50 in Rain Light Rain
3:15 PM 46.6 °F - 45.5 °F 96% 30.12 in 10.0 mi NNW 8.1 mph - 0.01 in Rain Light Rain
3:35 PM 46.4 °F 42.4 °F 45.1 °F 95% 30.12 in 2.5 mi North 8.1 mph - 0.08 in Rain Heavy Rain
3:55 PM 46.2 °F 40.1 °F 45.5 °F 97% 30.10 in 5.0 mi North 13.8 mph 17.3 mph 0.13 in Rain , Thunderstorm Rain
4:15 PM 45.9 °F 40.4 °F 44.8 °F 96% 30.13 in 5.0 mi NNW 11.5 mph - 0.06 in Rain , Thunderstorm Heavy Thunderstorms and Rain
4:35 PM 45.9 °F 40.8 °F 45.1 °F 97% 30.15 in 0.8 mi NW 10.4 mph 19.6 mph 0.27 in Rain , Thunderstorm Light Thunderstorms and Rain
4:55 PM 45.9 °F 40.8 °F 45.1 °F 97% 30.12 in 7.0 mi North 10.4 mph 17.3 mph 0.28 in Rain Rain
5:15 PM 45.9 °F 40.8 °F 45.1 °F 97% 30.12 in 7.0 mi North 10.4 mph - 0.01 in Rain Light Rain
5:35 PM 45.9 °F 40.0 °F 44.8 °F 96% 30.12 in 10.0 mi North 12.7 mph 20.7 mph 0.02 in Rain Rain
5:55 PM 45.0 °F 39.3 °F 43.0 °F 93% 30.12 in 10.0 mi North 11.5 mph 19.6 mph 0.03 in Rain Rain
6:15 PM 44.8 °F 39.4 °F 43.0 °F 93% 30.15 in 10.0 mi NNW 10.4 mph - N/A Rain Light Rain
6:35 PM 44.8 °F 38.7 °F 43.7 °F 96% 30.15 in 5.0 mi NNW 12.7 mph 16.1 mph 0.05 in Rain Light Rain
6:55 PM 44.2 °F 38.8 °F 42.8 °F 95% 30.17 in 10.0 mi NNW 10.4 mph 16.1 mph 0.07 in Rain Rain
7:15 PM 44.1 °F 39.5 °F 42.8 °F 95% 30.18 in 10.0 mi NNW 8.1 mph 19.6 mph N/A Thunderstorm Unknown
7:35 PM 44.1 °F 40.1 °F 42.8 °F 95% 30.15 in 10.0 mi North 6.9 mph - N/A Rain Light Rain
7:55 PM 44.1 °F 40.1 °F 43.0 °F 96% 30.15 in 10.0 mi NNW 6.9 mph - 0.01 in Rain , Thunderstorm Light Thunderstorms and Rain
8:15 PM 44.1 °F 40.1 °F 43.2 °F 97% 30.19 in 2.0 mi WNW 6.9 mph - 0.11 in Rain , Thunderstorm Light Thunderstorms and Rain
8:35 PM 44.2 °F 42.7 °F 43.3 °F 97% 30.15 in 10.0 mi North 3.5 mph - 0.17 in Rain , Thunderstorm Rain
8:55 PM 44.6 °F 43.1 °F 43.5 °F 96% 30.16 in 10.0 mi NW 3.5 mph - 0.18 in Rain Light Rain
9:15 PM 44.6 °F 41.4 °F 43.3 °F 95% 30.17 in 10.0 mi NNW 5.8 mph - N/A   Overcast
9:35 PM 44.6 °F 40.7 °F 43.3 °F 95% 30.18 in 10.0 mi NW 6.9 mph - N/A   Overcast
9:55 PM 44.4 °F 40.5 °F 43.0 °F 95% 30.18 in 10.0 mi NW 6.9 mph - N/A   Overcast
10:15 PM 44.6 °F 43.1 °F 42.8 °F 93% 30.18 in 10.0 mi NNW 3.5 mph - N/A   Overcast
10:35 PM 44.2 °F 41.0 °F 42.4 °F 93% 30.17 in 10.0 mi NNW 5.8 mph - N/A   Overcast
10:55 PM 44.1 °F 40.8 °F 42.3 °F 93% 30.17 in 10.0 mi NNW 5.8 mph - N/A   Overcast
11:15 PM 43.7 °F 40.3 °F 41.9 °F 93% 30.18 in 10.0 mi NW 5.8 mph - N/A   Mostly Cloudy
11:35 PM 43.0 °F 38.2 °F 41.9 °F 96% 30.19 in 10.0 mi NW 8.1 mph - N/A   Scattered Clouds
11:55 PM 42.8 °F 39.3 °F 41.5 °F 95% 30.19 in 10.0 mi NW 5.8 mph - N/A   Clear